Location: Borojevi?i
(45.0486°N, 16.2297°E)
Time: 04:02:45
(UTC+00:00)

H-2A R/B - Pass Details

Date: 08 August 2020
Orbit: 734 x 836 km, 98.2° (Epoch: 23 September)

Event Time Altitude Azimuth Distance (km) Brightness Sun altitude
Rises 18:49:25 0° 189° (S) 3,289 5.0 -6.7°
Reaches altitude 10° 18:51:57 10° 198° (SSW) 2,347 4.4 -7.1°
Maximum altitude 18:56:40 35° 263° (W) 1,233 3.7 -7.8°
Drops below altitude 10° 19:01:18 10° 329° (NNW) 2,303 5.6 -8.5°
Sets 19:03:47 0° 339° (NNW) 3,218 6.2 -8.9°
